Fayetteville, Georgia, United States (30214)
Lat: 33.45N, Lon: 84.45W
Wx Zone: GAZ054
Local Info
Past Weather Observations for Today

NOTE: This archive is for the closest National Weather Service station to Fayetteville. Information may differ from the station used for current weather conditions.

Time Weather Temperature Dewpoint Humidity Pressure Winds Precip Visibility
16:53
Clear
79°F / 26°C 30°F / -1°C 17% 29.92 in
(1013 mb)
Variable 6.9 mph
(Variable 11 kph)
- 10SM
15:53
Clear
79°F / 26°C 34°F / 1°C 20% 29.92 in
(1013 mb)
NW 10.4 mph
(NW 17 kph)
- 10SM
14:53
Clear
77°F / 25°C 32°F / 0°C 19% 29.92 in
(1013 mb)
NNW 8.1 mph
(NNW 13 kph)
- 10SM
13:53
Clear
75°F / 24°C 32°F / 0°C 21% 29.95 in
(1014 mb)
NW 11.5 mph
(NW 19 kph)
- 10SM
12:53
Clear
73°F / 23°C 36°F / 2°C 25% 29.95 in
(1014 mb)
NW 10.4 mph
(NW 17 kph)
- 10SM
11:53
Clear
72°F / 22°C 39°F / 4°C 31% 29.98 in
(1015 mb)
NW 10.4 mph
(NW 17 kph)
- 10SM
10:53
Clear
72°F / 22°C 43°F / 6°C 36% 29.98 in
(1015 mb)
N 12.7 mph
(N 20 kph)
- 10SM
09:53
Clear
68°F / 20°C 45°F / 7°C 43% 29.98 in
(1015 mb)
NW 9.2 mph
(NW 15 kph)
- 10SM
08:53
Clear
63°F / 17°C 48°F / 9°C 59% 29.98 in
(1015 mb)
NW 8.1 mph
(NW 13 kph)
- 10SM
07:53
Clear
59°F / 15°C 52°F / 11°C 77% 29.98 in
(1015 mb)
NW 5.8 mph
(NW 9 kph)
- 10SM
06:53
Clear
55°F / 13°C 54°F / 12°C 94% 29.95 in
(1014 mb)
NW 5.8 mph
(NW 9 kph)
- 7SM
06:45
Clear
Fog And Mist
55°F / 13°C 54°F / 12°C 94% 29.95 in
(1014 mb)
W 4.6 mph
(W 7 kph)
- 5SM
06:35
Clear
Fog And Mist
54°F / 12°C 52°F / 11°C 94% 29.95 in
(1014 mb)
NW 4.6 mph
(NW 7 kph)
- 2SM
06:28
Clear
Fog And Mist
54°F / 12°C 52°F / 11°C 94% 29.95 in
(1014 mb)
Calm - 3/4SM
06:17
Clear
Fog And Mist
54°F / 12°C 52°F / 11°C 94% 29.95 in
(1014 mb)
Calm - 1 3/4SM
05:53
Clear
Fog And Mist
55°F / 13°C 54°F / 12°C 94% 29.92 in
(1013 mb)
WNW 3.5 mph
(WNW 6 kph)
- 4SM
05:10
Clear
Fog And Mist
55°F / 13°C 55°F / 13°C 100% 29.92 in
(1013 mb)
NW 4.6 mph
(NW 7 kph)
- 3SM
04:53
Clear
Fog And Mist
55°F / 13°C 54°F / 12°C 94% 29.89 in
(1012 mb)
WNW 3.5 mph
(WNW 6 kph)
- 1 3/4SM
04:43
Clear
Fog And Mist
55°F / 13°C 54°F / 12°C 94% 29.89 in
(1012 mb)
NW 4.6 mph
(NW 7 kph)
- 2SM
04:02
Clear
Fog And Mist
55°F / 13°C 55°F / 13°C 100% 29.89 in
(1012 mb)
WNW 3.5 mph
(WNW 6 kph)
- 3SM
03:53
Partly Cloudy
Fog And Mist
55°F / 13°C 55°F / 13°C 100% 29.89 in
(1012 mb)
WNW 4.6 mph
(WNW 7 kph)
- 2 1/2SM
03:46
Partly Cloudy
Fog And Mist
55°F / 13°C 55°F / 13°C 100% 29.89 in
(1012 mb)
NW 4.6 mph
(NW 7 kph)
- 2SM
03:32
Overcast
Fog And Mist
55°F / 13°C 54°F / 12°C 94% 29.89 in
(1012 mb)
WNW 4.6 mph
(WNW 7 kph)
- 1 3/4SM
03:10
Mostly Cloudy
Fog And Mist
54°F / 12°C 52°F / 11°C 94% 29.89 in
(1012 mb)
Calm - 5SM
03:02
Partly Cloudy
Fog And Mist
54°F / 12°C 52°F / 11°C 94% 29.89 in
(1012 mb)
Calm - 4SM
02:53
Clear
Fog And Mist
54°F / 12°C 52°F / 11°C 94% 29.89 in
(1012 mb)
NW 3.5 mph
(NW 6 kph)
- 4SM
01:53
Clear
Fog And Mist
54°F / 12°C 52°F / 11°C 94% 29.89 in
(1012 mb)
Calm - 6SM
00:53
Clear
Fog And Mist
55°F / 13°C 54°F / 12°C 94% 29.89 in
(1012 mb)
Calm - 6SM
Time Weather Temperature Dewpoint Humidity Pressure Winds Precip Visibility


Weather for websites

WeatherForYou.com, LLC is not responsible for any damages or problems caused by this service. Current weather conditions are obtained from the closest station including government and personal stations which may have varying degrees of accuracy. Weather forecasts are derived from the NOAA NDFD. Like all things, this site belongs to Jesus Christ... He just trusts me to maintain it. If you have any questions or comments email webmaster@weatherforyou.com

Copyright © 2014, WeatherForYou.com LLC. All rights reserved.